Time,TemperatureF,DewpointF,PressureIn,WindDirection,WindDirectionDegrees,WindSpeedMPH,WindSpeedGustMPH,Humidity,HourlyPrecipIn,Conditions,Clouds,dailyrainin,SoftwareType,DateUTC
2013-01-13 00:04:00,26.6,26.6,29.97,North,353,8.3,8.7,100,0.00,,OVC041,0.00,VWS V14.01,2013-01-13 06:04:00,
2013-01-13 00:09:00,26.2,26.2,29.97,NW,320,5.4,10.1,100,0.00,,OVC041,0.00,VWS V14.01,2013-01-13 06:09:00,
2013-01-13 00:14:00,26.1,26.1,30.00,North,10,5.4,8.7,100,0.00,,OVC041,0.00,VWS V14.01,2013-01-13 06:14:00,
2013-01-13 00:19:00,25.9,25.9,30.00,NNW,337,5.4,11.0,100,0.00,,OVC041,0.00,VWS V14.01,2013-01-13 06:19:00,
2013-01-13 00:24:00,25.7,25.7,30.00,North,357,3.6,8.1,100,0.00,,,0.00,VWS V14.01,2013-01-13 06:24:00,
2013-01-13 00:29:00,25.5,25.5,29.97,North,349,5.4,10.1,100,0.00,,,0.00,VWS V14.01,2013-01-13 06:29:00,
2013-01-13 00:34:00,25.7,25.7,29.97,NNW,340,6.3,10.5,100,0.00,,,0.00,VWS V14.01,2013-01-13 06:34:00,
2013-01-13 00:39:00,25.5,25.5,29.97,North,0,3.6,6.3,100,0.00,,,0.00,VWS V14.01,2013-01-13 06:39:00,
2013-01-13 00:45:00,25.7,25.7,29.97,NNW,340,5.8,8.3,100,0.00,,,0.00,VWS V14.01,2013-01-13 06:45:00,
2013-01-13 00:50:00,25.5,25.5,29.97,NNW,332,7.6,8.7,100,0.00,,,0.00,VWS V14.01,2013-01-13 06:50:00,
2013-01-13 00:55:00,25.5,25.5,29.97,North,8,8.1,10.5,100,0.00,,,0.00,VWS V14.01,2013-01-13 06:55:00,
2013-01-13 01:00:00,25.3,25.3,29.97,NNW,338,5.4,9.2,100,0.00,,,0.00,VWS V14.01,2013-01-13 07:00:00,
2013-01-13 01:05:00,25.3,25.3,29.97,NNW,335,3.6,8.7,100,0.00,,OVC012,0.00,VWS V14.01,2013-01-13 07:05:00,
2013-01-13 01:10:00,25.3,25.3,29.97,NW,326,5.8,10.5,100,0.00,,OVC012,0.00,VWS V14.01,2013-01-13 07:10:00,
2013-01-13 01:15:00,25.3,25.3,29.94,North,2,2.7,5.8,100,0.00,,OVC012,0.00,VWS V14.01,2013-01-13 07:15:00,
2013-01-13 01:20:00,25.3,25.3,29.94,NNW,327,0.0,5.8,100,0.00,,OVC012,0.00,VWS V14.01,2013-01-13 07:20:00,
2013-01-13 01:25:00,25.3,25.3,29.94,NW,326,8.7,10.5,100,0.00,,OVC015,0.00,VWS V14.01,2013-01-13 07:25:00,
2013-01-13 01:30:00,25.3,25.3,29.94,North,350,5.4,8.7,100,0.00,,OVC015,0.00,VWS V14.01,2013-01-13 07:30:00,
2013-01-13 01:35:00,25.3,25.3,29.94,NNW,343,4.0,8.3,100,0.00,,OVC015,0.00,VWS V14.01,2013-01-13 07:35:00,
2013-01-13 01:40:00,25.3,25.3,29.94,North,357,4.0,4.0,100,0.00,,OVC015,0.00,VWS V14.01,2013-01-13 07:40:00,
2013-01-13 01:45:00,25.3,25.3,29.97,North,3,6.3,6.3,100,0.00,,BKN021,0.00,VWS V14.01,2013-01-13 07:45:00,
2013-01-13 01:50:00,25.2,25.2,29.97,NW,321,6.3,6.7,100,0.00,,BKN021,0.00,VWS V14.01,2013-01-13 07:50:00,
2013-01-13 01:55:00,25.0,25.0,29.97,North,353,5.4,6.3,100,0.00,,BKN021,0.00,VWS V14.01,2013-01-13 07:55:00,
2013-01-13 02:00:00,25.0,25.0,30.00,NNW,346,4.9,4.9,100,0.00,,BKN021,0.00,VWS V14.01,2013-01-13 08:00:00,
2013-01-13 02:05:00,25.0,25.0,30.00,NNW,343,3.1,10.1,100,0.00,,BKN055,0.00,VWS V14.01,2013-01-13 08:05:00,
2013-01-13 02:11:00,25.0,25.0,30.00,NNW,345,2.7,4.0,100,0.00,,BKN055,0.00,VWS V14.01,2013-01-13 08:11:00,
2013-01-13 02:16:00,25.0,25.0,30.00,NNE,15,12.3,12.3,100,0.00,,BKN055,0.00,VWS V14.01,2013-01-13 08:16:00,
2013-01-13 02:21:00,24.8,24.8,30.00,North,357,6.3,6.3,100,0.00,,BKN055,0.00,VWS V14.01,2013-01-13 08:21:00,
2013-01-13 02:26:00,24.8,24.8,30.00,NNW,346,0.0,4.0,100,0.00,,OVC012,0.00,VWS V14.01,2013-01-13 08:26:00,
2013-01-13 02:31:00,24.8,24.8,30.00,NNW,342,5.4,7.6,100,0.00,,OVC012,0.00,VWS V14.01,2013-01-13 08:31:00,
2013-01-13 02:36:00,24.6,24.6,30.00,NW,314,4.0,8.1,100,0.00,,OVC012,0.00,VWS V14.01,2013-01-13 08:36:00,
2013-01-13 02:41:00,24.4,24.4,30.00,NNW,342,5.4,8.7,100,0.00,,OVC012,0.00,VWS V14.01,2013-01-13 08:41:00,
2013-01-13 02:46:00,24.4,24.4,29.97,North,0,8.3,9.6,100,0.00,,OVC012,0.00,VWS V14.01,2013-01-13 08:46:00,
2013-01-13 02:51:00,24.1,24.1,29.97,North,0,5.4,8.1,100,0.00,,OVC012,0.00,VWS V14.01,2013-01-13 08:51:00,
2013-01-13 02:57:00,24.1,24.1,29.97,North,0,2.7,3.6,100,0.00,,OVC012,0.00,VWS V14.01,2013-01-13 08:57:00,
2013-01-13 03:02:00,23.9,23.9,29.97,North,0,8.7,10.1,100,0.00,,OVC012,0.00,VWS V14.01,2013-01-13 09:02:00,
2013-01-13 03:07:00,23.7,23.7,29.97,NNW,330,5.8,8.1,100,0.00,,OVC012,0.00,VWS V14.01,2013-01-13 09:07:00,
2013-01-13 03:12:00,23.5,23.5,29.97,NNW,341,4.0,8.1,100,0.00,,OVC012,0.00,VWS V14.01,2013-01-13 09:12:00,
2013-01-13 03:17:00,23.5,23.5,29.97,WNW,298,4.0,10.5,100,0.00,,OVC012,0.00,VWS V14.01,2013-01-13 09:17:00,
2013-01-13 03:22:00,23.5,23.5,29.97,NNW,340,4.9,7.6,100,0.00,,OVC012,0.00,VWS V14.01,2013-01-13 09:22:00,
2013-01-13 03:27:00,23.5,23.5,29.97,NW,324,6.3,8.7,100,0.00,,OVC012,0.00,VWS V14.01,2013-01-13 09:27:00,
2013-01-13 03:32:00,23.5,23.5,29.97,NW,321,7.6,9.2,100,0.00,,OVC012,0.00,VWS V14.01,2013-01-13 09:32:00,
2013-01-13 03:37:00,23.4,22.0,29.97,North,0,5.8,11.9,94,0.00,,OVC012,0.00,VWS V14.01,2013-01-13 09:37:00,
2013-01-13 03:42:00,23.4,22.0,29.97,SW,222,3.1,8.3,94,0.00,,OVC010,0.00,VWS V14.01,2013-01-13 09:42:00,
2013-01-13 03:48:00,23.4,22.0,30.00,North,349,7.6,10.5,94,0.00,,OVC010,0.00,VWS V14.01,2013-01-13 09:48:00,
2013-01-13 03:53:00,23.4,22.0,30.00,NW,313,6.3,8.3,94,0.00,,OVC010,0.00,VWS V14.01,2013-01-13 09:53:00,
2013-01-13 03:58:00,23.2,21.8,30.00,West,272,3.6,12.3,94,0.00,,OVC010,0.00,VWS V14.01,2013-01-13 09:58:00,
2013-01-13 04:03:00,23.4,22.0,30.03,NNW,343,8.1,8.7,94,0.00,,OVC010,0.00,VWS V14.01,2013-01-13 10:03:00,
2013-01-13 04:08:00,23.2,21.8,30.03,NNW,334,6.3,8.7,94,0.00,,OVC010,0.00,VWS V14.01,2013-01-13 10:08:00,
2013-01-13 04:13:00,23.2,21.8,30.03,West,279,3.1,4.9,94,0.00,,OVC010,0.00,VWS V14.01,2013-01-13 10:13:00,
2013-01-13 04:18:00,23.2,21.8,30.06,NNW,327,4.0,5.4,94,0.00,,OVC010,0.00,VWS V14.01,2013-01-13 10:18:00,
2013-01-13 04:23:00,23.0,21.7,30.06,NW,308,3.1,8.3,94,0.00,,OVC010,0.00,VWS V14.01,2013-01-13 10:23:00,
2013-01-13 04:28:00,23.0,21.7,30.06,NW,324,4.9,8.1,94,0.00,,OVC010,0.00,VWS V14.01,2013-01-13 10:28:00,
2013-01-13 04:33:00,22.8,21.5,30.03,NNW,342,3.1,8.1,94,0.00,,OVC010,0.00,VWS V14.01,2013-01-13 10:33:00,
2013-01-13 04:39:00,22.8,21.5,30.03,NNW,338,4.0,8.7,94,0.00,,OVC010,0.00,VWS V14.01,2013-01-13 10:39:00,
2013-01-13 04:44:00,22.6,21.3,30.03,WNW,300,8.1,8.7,94,0.00,,OVC012,0.00,VWS V14.01,2013-01-13 10:44:00,
2013-01-13 04:49:00,22.5,21.1,30.03,NW,305,3.1,10.5,94,0.00,,OVC012,0.00,VWS V14.01,2013-01-13 10:49:00,
2013-01-13 04:54:00,22.6,21.3,30.03,NW,322,3.1,4.0,94,0.00,,OVC012,0.00,VWS V14.01,2013-01-13 10:54:00,
2013-01-13 04:59:00,22.5,21.1,30.00,NW,311,6.3,6.3,94,0.00,,OVC012,0.00,VWS V14.01,2013-01-13 10:59:00,
2013-01-13 05:04:00,22.5,21.1,30.00,North,353,3.6,6.3,94,0.00,,OVC012,0.00,VWS V14.01,2013-01-13 11:04:00,
2013-01-13 05:09:00,22.5,21.1,30.00,North,357,3.1,8.1,94,0.00,,OVC012,0.00,VWS V14.01,2013-01-13 11:09:00,
2013-01-13 05:14:00,22.5,21.1,30.03,NNW,343,3.6,8.7,94,0.00,,OVC012,0.00,VWS V14.01,2013-01-13 11:14:00,
2013-01-13 05:19:00,22.3,20.9,30.03,North,353,5.8,10.5,94,0.00,,OVC012,0.00,VWS V14.01,2013-01-13 11:19:00,
2013-01-13 05:24:00,22.3,20.9,30.03,North,357,4.0,8.1,94,0.00,,OVC012,0.00,VWS V14.01,2013-01-13 11:24:00,
2013-01-13 05:30:00,22.3,20.9,30.03,NNW,345,5.4,6.3,94,0.00,,OVC012,0.00,VWS V14.01,2013-01-13 11:30:00,
2013-01-13 05:35:00,22.1,20.8,30.03,WNW,290,4.0,10.5,94,0.00,,OVC012,0.00,VWS V14.01,2013-01-13 11:35:00,
2013-01-13 05:40:00,22.1,20.8,30.03,North,11,5.8,11.0,94,0.00,,OVC012,0.00,VWS V14.01,2013-01-13 11:40:00,
2013-01-13 05:45:00,22.1,20.8,30.03,North,357,4.0,4.0,94,0.00,,OVC012,0.00,VWS V14.01,2013-01-13 11:45:00,
2013-01-13 05:50:00,22.1,20.8,30.03,WNW,285,2.2,3.6,94,0.00,,OVC012,0.00,VWS V14.01,2013-01-13 11:50:00,
2013-01-13 05:55:00,22.1,20.8,30.03,NNW,328,2.7,4.0,94,0.00,,OVC012,0.00,VWS V14.01,2013-01-13 11:55:00,
2013-01-13 06:00:00,22.3,20.9,30.06,NNW,345,2.7,3.1,94,0.00,,OVC012,0.00,VWS V14.01,2013-01-13 12:00:00,
2013-01-13 06:05:00,22.3,20.9,30.06,NW,317,3.6,3.6,94,0.00,,OVC012,0.00,VWS V14.01,2013-01-13 12:05:00,
2013-01-13 06:10:00,22.1,20.8,30.06,NNW,327,0.0,2.2,94,0.00,,OVC012,0.00,VWS V14.01,2013-01-13 12:10:00,
2013-01-13 06:15:00,21.9,20.6,30.03,WNW,298,2.7,2.7,94,0.00,,OVC012,0.00,VWS V14.01,2013-01-13 12:15:00,
2013-01-13 06:20:00,21.7,20.4,30.03,North,353,2.7,3.6,94,0.00,,OVC012,0.00,VWS V14.01,2013-01-13 12:20:00,
2013-01-13 06:26:00,21.7,20.4,30.03,North,357,5.4,5.4,94,0.00,,OVC014,0.00,VWS V14.01,2013-01-13 12:26:00,
2013-01-13 06:31:00,21.6,20.2,30.06,NW,320,5.4,5.4,94,0.00,,OVC014,0.00,VWS V14.01,2013-01-13 12:31:00,
2013-01-13 06:36:00,21.4,20.0,30.06,NNW,336,0.0,0.0,94,0.00,,OVC014,0.00,VWS V14.01,2013-01-13 12:36:00,
2013-01-13 06:41:00,21.4,20.0,30.06,North,0,4.0,4.0,94,0.00,,OVC014,0.00,VWS V14.01,2013-01-13 12:41:00,
2013-01-13 06:46:00,21.4,20.0,30.06,NNW,343,2.7,2.7,94,0.00,,OVC021,0.00,VWS V14.01,2013-01-13 12:46:00,
2013-01-13 06:51:00,21.4,20.0,30.06,NW,326,2.7,8.7,94,0.00,,OVC021,0.00,VWS V14.01,2013-01-13 12:51:00,
2013-01-13 06:56:00,21.4,20.0,30.06,NNE,30,2.7,4.0,94,0.00,,OVC021,0.00,VWS V14.01,2013-01-13 12:56:00,
2013-01-13 07:01:00,21.2,19.9,30.06,WNW,294,2.2,4.0,94,0.00,,OVC021,0.00,VWS V14.01,2013-01-13 13:01:00,
2013-01-13 07:06:00,21.2,18.1,30.06,NW,323,6.3,6.3,88,0.00,,OVC023,0.00,VWS V14.01,2013-01-13 13:06:00,
2013-01-13 07:11:00,20.8,17.7,30.06,North,0,3.6,6.3,88,0.00,,OVC023,0.00,VWS V14.01,2013-01-13 13:11:00,
2013-01-13 07:16:00,20.7,17.5,30.06,West,261,2.7,3.6,88,0.00,,OVC023,0.00,VWS V14.01,2013-01-13 13:16:00,
2013-01-13 07:21:00,20.7,17.5,30.06,NNW,339,0.0,5.4,88,0.00,,OVC023,0.00,VWS V14.01,2013-01-13 13:21:00,
2013-01-13 07:26:00,20.5,17.4,30.06,NW,319,0.0,2.7,88,0.00,,OVC023,0.00,VWS V14.01,2013-01-13 13:26:00,
2013-01-13 07:31:00,20.5,17.4,30.09,NNW,346,5.4,8.1,88,0.00,,OVC023,0.00,VWS V14.01,2013-01-13 13:31:00,
2013-01-13 07:36:00,20.5,17.4,30.09,WSW,254,2.2,6.3,88,0.00,,OVC023,0.00,VWS V14.01,2013-01-13 13:36:00,
2013-01-13 07:41:00,20.5,17.4,30.09,WNW,283,2.7,2.7,88,0.00,,OVC023,0.00,VWS V14.01,2013-01-13 13:41:00,
2013-01-13 07:46:00,20.5,17.4,30.09,NNW,327,2.7,4.0,88,0.00,,OVC023,0.00,VWS V14.01,2013-01-13 13:46:00,
2013-01-13 07:52:00,20.5,17.4,30.09,West,279,0.0,3.1,88,0.00,,OVC023,0.00,VWS V14.01,2013-01-13 13:52:00,
2013-01-13 07:57:00,20.7,19.3,30.09,NW,324,6.3,6.3,94,0.00,,OVC023,0.00,VWS V14.01,2013-01-13 13:57:00,
2013-01-13 08:02:00,20.7,19.3,30.06,NNE,25,3.6,5.4,94,0.00,,OVC023,0.00,VWS V14.01,2013-01-13 14:02:00,
2013-01-13 08:07:00,20.5,19.1,30.06,NNW,332,2.2,5.4,94,0.00,,OVC023,0.00,VWS V14.01,2013-01-13 14:07:00,
2013-01-13 08:12:00,20.5,19.1,30.06,North,353,2.7,4.9,94,0.00,,OVC023,0.00,VWS V14.01,2013-01-13 14:12:00,
2013-01-13 08:17:00,20.5,19.1,30.09,WNW,299,3.1,6.3,94,0.00,,OVC023,0.00,VWS V14.01,2013-01-13 14:17:00,
2013-01-13 08:22:00,20.5,19.1,30.09,NNW,335,2.7,7.6,94,0.00,,OVC023,0.00,VWS V14.01,2013-01-13 14:22:00,
2013-01-13 08:27:00,20.5,19.1,30.09,SW,236,0.0,4.0,94,0.00,,OVC023,0.00,VWS V14.01,2013-01-13 14:27:00,
2013-01-13 08:32:00,20.5,19.1,30.09,WNW,290,4.9,6.3,94,0.00,,OVC023,0.00,VWS V14.01,2013-01-13 14:32:00,
2013-01-13 08:37:00,20.5,19.1,30.09,NW,315,0.0,4.9,94,0.00,,OVC023,0.00,VWS V14.01,2013-01-13 14:37:00,
2013-01-13 08:42:00,20.5,19.1,30.09,West,261,3.6,8.3,94,0.00,,OVC023,0.00,VWS V14.01,2013-01-13 14:42:00,
2013-01-13 08:47:00,20.5,19.1,30.09,West,261,6.3,6.3,94,0.00,,OVC023,0.00,VWS V14.01,2013-01-13 14:47:00,
2013-01-13 08:52:00,20.5,19.1,30.09,SW,233,5.4,11.0,94,0.00,,OVC023,0.00,VWS V14.01,2013-01-13 14:52:00,
2013-01-13 08:58:00,20.5,17.4,30.09,NW,320,3.1,5.8,88,0.00,,OVC023,0.00,VWS V14.01,2013-01-13 14:58:00,
2013-01-13 09:03:00,20.5,17.4,30.11,WNW,282,3.6,5.4,88,0.00,,OVC023,0.00,VWS V14.01,2013-01-13 15:03:00,
2013-01-13 09:07:00,20.5,17.4,30.11,West,276,4.9,6.3,88,0.00,,OVC023,0.00,VWS V14.01,2013-01-13 15:07:00,
2013-01-13 09:12:00,20.3,17.2,30.11,NNE,17,4.0,4.0,88,0.00,,OVC023,0.00,VWS V14.01,2013-01-13 15:12:00,
2013-01-13 09:17:00,20.3,17.2,30.11,NW,313,5.4,6.3,88,0.00,,OVC023,0.00,VWS V14.01,2013-01-13 15:17:00,
2013-01-13 09:23:00,20.3,17.2,30.11,WNW,288,2.2,5.8,88,0.00,,OVC023,0.00,VWS V14.01,2013-01-13 15:23:00,
2013-01-13 09:28:00,20.1,17.0,30.11,NNW,335,5.8,5.8,88,0.00,,OVC023,0.00,VWS V14.01,2013-01-13 15:28:00,
2013-01-13 09:33:00,20.1,17.0,30.11,NNW,345,4.0,8.7,88,0.00,,OVC023,0.00,VWS V14.01,2013-01-13 15:33:00,
2013-01-13 09:38:00,20.1,17.0,30.11,NW,312,5.4,8.3,88,0.00,,OVC023,0.00,VWS V14.01,2013-01-13 15:38:00,
2013-01-13 09:43:00,19.9,16.8,30.11,WNW,299,2.2,5.4,88,0.00,,OVC023,0.00,VWS V14.01,2013-01-13 15:43:00,
2013-01-13 09:48:00,19.9,16.8,30.11,West,269,4.0,8.3,88,0.00,,OVC023,0.00,VWS V14.01,2013-01-13 15:48:00,
2013-01-13 09:53:00,19.9,16.8,30.11,West,265,2.2,5.4,88,0.00,,OVC023,0.00,VWS V14.01,2013-01-13 15:53:00,
2013-01-13 09:58:00,19.9,16.8,30.11,NNW,327,3.1,5.8,88,0.00,,OVC023,0.00,VWS V14.01,2013-01-13 15:58:00,
2013-01-13 10:03:00,19.8,16.7,30.11,WSW,239,3.1,5.8,88,0.00,,OVC023,0.00,VWS V14.01,2013-01-13 16:03:00,
2013-01-13 10:08:00,19.9,16.8,30.11,WNW,294,2.7,8.1,88,0.00,,OVC023,0.00,VWS V14.01,2013-01-13 16:08:00,
2013-01-13 10:13:00,19.9,16.8,30.09,NNW,343,3.6,7.6,88,0.00,,OVC023,0.00,VWS V14.01,2013-01-13 16:13:00,
2013-01-13 10:18:00,19.9,16.8,30.09,North,0,4.0,6.7,88,0.00,,OVC023,0.00,VWS V14.01,2013-01-13 16:18:00,
2013-01-13 10:23:00,19.9,16.8,30.09,North,350,5.8,6.3,88,0.00,,OVC025,0.00,VWS V14.01,2013-01-13 16:23:00,
2013-01-13 10:29:00,19.9,16.8,30.09,WNW,282,6.3,11.4,88,0.00,,OVC025,0.00,VWS V14.01,2013-01-13 16:29:00,
2013-01-13 10:34:00,20.1,17.0,30.09,WNW,301,0.0,7.6,88,0.00,,OVC025,0.00,VWS V14.01,2013-01-13 16:34:00,
2013-01-13 10:39:00,20.1,17.0,30.09,WNW,298,5.8,5.8,88,0.00,,OVC025,0.00,VWS V14.01,2013-01-13 16:39:00,
2013-01-13 10:44:00,20.1,17.0,30.09,West,259,4.0,7.6,88,0.00,,OVC025,0.00,VWS V14.01,2013-01-13 16:44:00,
2013-01-13 10:49:00,20.3,17.2,30.09,NW,316,3.6,6.3,88,0.00,,OVC025,0.00,VWS V14.01,2013-01-13 16:49:00,
2013-01-13 10:54:00,20.3,17.2,30.09,NNW,334,4.0,8.7,88,0.00,,OVC025,0.00,VWS V14.01,2013-01-13 16:54:00,
2013-01-13 10:59:00,20.3,17.2,30.06,NW,304,4.9,10.1,88,0.00,,OVC025,0.00,VWS V14.01,2013-01-13 16:59:00,
2013-01-13 11:04:00,20.3,17.2,30.06,NW,321,8.7,8.7,88,0.00,,OVC025,0.00,VWS V14.01,2013-01-13 17:04:00,
2013-01-13 11:10:00,20.3,17.2,30.06,North,353,3.6,8.1,88,0.00,,OVC025,0.00,VWS V14.01,2013-01-13 17:10:00,
2013-01-13 11:15:00,20.1,17.0,30.09,NNW,337,3.6,6.7,88,0.00,,OVC025,0.00,VWS V14.01,2013-01-13 17:15:00,
2013-01-13 11:20:00,19.9,16.8,30.09,NNW,329,5.8,8.7,88,0.00,,OVC025,0.00,VWS V14.01,2013-01-13 17:20:00,
2013-01-13 11:25:00,19.9,16.8,30.09,NW,317,5.8,8.7,88,0.00,,OVC027,0.00,VWS V14.01,2013-01-13 17:25:00,
2013-01-13 11:30:00,20.1,17.0,30.09,NNW,346,5.8,8.3,88,0.00,,OVC027,0.00,VWS V14.01,2013-01-13 17:30:00,
2013-01-13 11:35:00,19.9,16.8,30.09,NNW,343,2.7,6.7,88,0.00,,OVC027,0.00,VWS V14.01,2013-01-13 17:35:00,
2013-01-13 11:40:00,19.8,16.7,30.09,West,275,3.1,4.9,88,0.00,,OVC027,0.00,VWS V14.01,2013-01-13 17:40:00,
2013-01-13 11:45:00,19.8,16.7,30.09,North,357,8.1,8.3,88,0.00,,OVC029,0.00,VWS V14.01,2013-01-13 17:45:00,
2013-01-13 11:50:00,19.8,16.7,30.09,WNW,297,0.0,0.0,88,0.00,,OVC029,0.00,VWS V14.01,2013-01-13 17:50:00,
2013-01-13 11:55:00,19.9,16.8,30.09,NW,317,8.7,8.7,88,0.00,,OVC029,0.00,VWS V14.01,2013-01-13 17:55:00,
2013-01-13 12:00:00,19.8,16.7,30.11,WNW,299,0.0,0.0,88,0.00,,OVC029,0.00,VWS V14.01,2013-01-13 18:00:00,
2013-01-13 12:05:00,19.8,16.7,30.11,NNW,338,5.4,8.7,88,0.00,,OVC031,0.00,VWS V14.01,2013-01-13 18:05:00,
2013-01-13 12:10:00,19.8,16.7,30.11,West,266,2.2,2.7,88,0.00,,OVC031,0.00,VWS V14.01,2013-01-13 18:10:00,
2013-01-13 12:15:00,19.9,16.8,30.11,West,264,4.0,4.0,88,0.00,,OVC031,0.00,VWS V14.01,2013-01-13 18:15:00,
2013-01-13 12:20:00,20.1,17.0,30.11,NW,326,4.9,5.8,88,0.00,,OVC031,0.00,VWS V14.01,2013-01-13 18:20:00,
2013-01-13 12:25:00,19.9,16.8,30.11,WNW,297,2.7,6.3,88,0.00,,OVC037,0.00,VWS V14.01,2013-01-13 18:25:00,
2013-01-13 12:30:00,20.1,17.0,30.11,NW,305,2.7,4.9,88,0.00,,OVC037,0.00,VWS V14.01,2013-01-13 18:30:00,
2013-01-13 12:36:00,20.3,17.2,30.11,WSW,246,0.0,0.0,88,0.00,,OVC037,0.00,VWS V14.01,2013-01-13 18:36:00,
2013-01-13 12:41:00,20.5,17.4,30.11,West,275,4.0,4.0,88,0.00,,OVC037,0.00,VWS V14.01,2013-01-13 18:41:00,
2013-01-13 12:46:00,20.7,17.5,30.09,NNW,340,2.2,6.3,88,0.00,,OVC037,0.00,VWS V14.01,2013-01-13 18:46:00,
2013-01-13 12:51:00,20.7,17.5,30.09,WSW,247,5.8,5.8,88,0.00,,OVC037,0.00,VWS V14.01,2013-01-13 18:51:00,
2013-01-13 12:56:00,20.5,17.4,30.09,West,263,7.6,7.6,88,0.00,,OVC037,0.00,VWS V14.01,2013-01-13 18:56:00,
2013-01-13 13:01:00,20.5,17.4,30.09,NNW,328,4.9,5.8,88,0.00,,OVC037,0.00,VWS V14.01,2013-01-13 19:01:00,
2013-01-13 13:06:00,20.7,17.5,30.09,West,259,0.0,5.8,88,0.00,,OVC039,0.00,VWS V14.01,2013-01-13 19:06:00,
2013-01-13 13:11:00,20.7,17.5,30.09,WNW,300,0.0,5.4,88,0.00,,OVC039,0.00,VWS V14.01,2013-01-13 19:11:00,
2013-01-13 13:16:00,20.7,17.5,30.09,WNW,297,4.0,7.6,88,0.00,,OVC039,0.00,VWS V14.01,2013-01-13 19:16:00,
2013-01-13 13:21:00,20.5,17.4,30.09,NW,313,2.7,6.3,88,0.00,,OVC043,0.00,VWS V14.01,2013-01-13 19:21:00,
2013-01-13 13:26:00,20.5,17.4,30.09,WSW,252,3.6,6.3,88,0.00,,OVC043,0.00,VWS V14.01,2013-01-13 19:26:00,
2013-01-13 13:31:00,20.7,17.5,30.09,SSW,204,0.0,5.8,88,0.00,,OVC043,0.00,VWS V14.01,2013-01-13 19:31:00,
2013-01-13 13:36:00,20.8,17.7,30.09,WNW,288,4.0,5.8,88,0.00,,OVC043,0.00,VWS V14.01,2013-01-13 19:36:00,
2013-01-13 13:41:00,20.8,17.7,30.09,West,261,5.8,6.3,88,0.00,,OVC047,0.00,VWS V14.01,2013-01-13 19:41:00,
2013-01-13 13:47:00,20.8,17.7,30.06,NNW,333,6.3,6.3,88,0.00,,OVC047,0.00,VWS V14.01,2013-01-13 19:47:00,
2013-01-13 13:52:00,20.7,17.5,30.06,NNW,328,3.6,5.8,88,0.00,,OVC047,0.00,VWS V14.01,2013-01-13 19:52:00,
2013-01-13 13:57:00,20.8,17.7,30.06,North,353,4.0,6.3,88,0.00,,OVC047,0.00,VWS V14.01,2013-01-13 19:57:00,
2013-01-13 14:02:00,20.7,17.5,30.09,NNW,332,2.7,8.7,88,0.00,,OVC049,0.00,VWS V14.01,2013-01-13 20:02:00,
2013-01-13 14:07:00,20.7,17.5,30.09,NW,326,2.2,5.8,88,0.00,,OVC049,0.00,VWS V14.01,2013-01-13 20:07:00,
2013-01-13 14:12:00,20.8,17.7,30.09,NW,311,0.0,8.1,88,0.00,,OVC049,0.00,VWS V14.01,2013-01-13 20:12:00,
2013-01-13 14:17:00,20.8,17.7,30.11,West,267,4.0,5.8,88,0.00,,OVC049,0.00,VWS V14.01,2013-01-13 20:17:00,
2013-01-13 14:22:00,21.2,18.1,30.11,WNW,299,3.1,9.2,88,0.00,,OVC055,0.00,VWS V14.01,2013-01-13 20:22:00,
2013-01-13 14:27:00,21.2,18.1,30.11,West,273,5.8,5.8,88,0.00,,OVC055,0.00,VWS V14.01,2013-01-13 20:27:00,
2013-01-13 14:32:00,20.8,17.7,30.11,NW,325,2.7,4.0,88,0.00,,OVC055,0.00,VWS V14.01,2013-01-13 20:32:00,
2013-01-13 14:37:00,20.8,17.7,30.11,North,357,4.0,5.8,88,0.00,,OVC055,0.00,VWS V14.01,2013-01-13 20:37:00,
2013-01-13 14:42:00,20.7,17.5,30.11,WNW,293,5.8,7.6,88,0.00,,OVC055,0.00,VWS V14.01,2013-01-13 20:42:00,
2013-01-13 14:47:00,20.7,17.5,30.11,WNW,303,6.3,8.7,88,0.00,,OVC055,0.00,VWS V14.01,2013-01-13 20:47:00,
2013-01-13 14:52:00,20.7,17.5,30.11,NNW,334,3.6,5.8,88,0.00,,OVC055,0.00,VWS V14.01,2013-01-13 20:52:00,
2013-01-13 14:57:00,20.5,17.4,30.11,NW,306,3.6,5.4,88,0.00,,OVC055,0.00,VWS V14.01,2013-01-13 20:57:00,
2013-01-13 15:03:00,20.3,17.2,30.11,NNW,340,7.6,8.1,88,0.00,,OVC075,0.00,VWS V14.01,2013-01-13 21:03:00,
2013-01-13 15:08:00,20.3,17.2,30.11,WNW,284,3.1,8.7,88,0.00,,OVC075,0.00,VWS V14.01,2013-01-13 21:08:00,
2013-01-13 15:13:00,20.3,17.2,30.11,WNW,287,4.5,5.4,88,0.00,,OVC075,0.00,VWS V14.01,2013-01-13 21:13:00,
2013-01-13 15:18:00,20.3,17.2,30.11,West,263,3.6,8.7,88,0.00,,OVC075,0.00,VWS V14.01,2013-01-13 21:18:00,
2013-01-13 15:23:00,20.1,17.0,30.11,WNW,301,5.8,7.6,88,0.00,,OVC075,0.00,VWS V14.01,2013-01-13 21:23:00,
2013-01-13 15:28:00,20.1,17.0,30.11,NNW,345,3.6,10.5,88,0.00,,OVC075,0.00,VWS V14.01,2013-01-13 21:28:00,
2013-01-13 15:33:00,20.1,17.0,30.14,WNW,299,7.2,7.2,88,0.00,,OVC075,0.00,VWS V14.01,2013-01-13 21:33:00,
2013-01-13 15:38:00,19.9,16.8,30.14,WNW,290,5.4,8.7,88,0.00,,OVC075,0.00,VWS V14.01,2013-01-13 21:38:00,
2013-01-13 15:43:00,19.8,16.7,30.14,WSW,253,5.4,5.8,88,0.00,,OVC075,0.00,VWS V14.01,2013-01-13 21:43:00,
2013-01-13 15:48:00,19.8,16.7,30.14,West,264,8.1,8.1,88,0.00,,OVC075,0.00,VWS V14.01,2013-01-13 21:48:00,
2013-01-13 15:53:00,19.6,16.5,30.14,West,281,9.6,9.6,88,0.00,,OVC075,0.00,VWS V14.01,2013-01-13 21:53:00,
2013-01-13 15:58:00,19.6,16.5,30.17,WNW,291,5.4,8.1,88,0.00,,OVC075,0.00,VWS V14.01,2013-01-13 21:58:00,
2013-01-13 16:04:00,19.4,16.3,30.17,WNW,283,5.4,12.8,88,0.00,,OVC075,0.00,VWS V14.01,2013-01-13 22:04:00,
2013-01-13 16:09:00,19.4,16.3,30.17,NW,326,2.7,6.3,88,0.00,,OVC075,0.00,VWS V14.01,2013-01-13 22:09:00,
2013-01-13 16:14:00,19.4,16.3,30.17,WNW,298,5.8,9.2,88,0.00,,OVC075,0.00,VWS V14.01,2013-01-13 22:14:00,
2013-01-13 16:19:00,19.0,15.9,30.17,NNW,337,4.0,8.3,88,0.00,,OVC075,0.00,VWS V14.01,2013-01-13 22:19:00,
2013-01-13 16:24:00,18.7,15.6,30.17,WSW,258,2.7,8.7,88,0.00,,OVC075,0.00,VWS V14.01,2013-01-13 22:24:00,
2013-01-13 16:29:00,18.5,15.4,30.17,WSW,252,3.1,5.4,88,0.00,,OVC075,0.00,VWS V14.01,2013-01-13 22:29:00,
2013-01-13 16:34:00,18.5,15.4,30.17,WNW,288,2.7,8.7,88,0.00,,OVC075,0.00,VWS V14.01,2013-01-13 22:34:00,
2013-01-13 16:39:00,18.5,15.4,30.17,NNW,340,4.0,6.3,88,0.00,,OVC075,0.00,VWS V14.01,2013-01-13 22:39:00,
2013-01-13 16:44:00,18.3,15.2,30.20,WNW,288,3.1,10.1,88,0.00,,OVC085,0.00,VWS V14.01,2013-01-13 22:44:00,
2013-01-13 16:49:00,18.1,15.1,30.20,NNW,337,3.6,7.2,88,0.00,,OVC085,0.00,VWS V14.01,2013-01-13 22:49:00,
2013-01-13 16:54:00,18.1,15.1,30.20,West,271,5.4,10.1,88,0.00,,OVC085,0.00,VWS V14.01,2013-01-13 22:54:00,
2013-01-13 16:59:00,18.0,14.9,30.20,West,266,4.0,8.3,88,0.00,,OVC085,0.00,VWS V14.01,2013-01-13 22:59:00,
2013-01-13 17:05:00,17.8,14.7,30.20,NW,304,3.6,7.6,88,0.00,,OVC085,0.00,VWS V14.01,2013-01-13 23:05:00,
2013-01-13 17:10:00,17.8,14.7,30.20,WSW,251,3.6,8.7,88,0.00,,OVC085,0.00,VWS V14.01,2013-01-13 23:10:00,
2013-01-13 17:15:00,17.6,15.4,30.20,WSW,255,3.1,8.3,91,0.00,,OVC085,0.00,VWS V14.01,2013-01-13 23:15:00,
2013-01-13 17:20:00,17.4,15.2,30.20,WSW,253,5.8,8.7,91,0.00,,OVC085,0.00,VWS V14.01,2013-01-13 23:20:00,
2013-01-13 17:25:00,17.1,14.9,30.20,West,259,4.9,8.3,91,0.00,,OVC095,0.00,VWS V14.01,2013-01-13 23:25:00,
2013-01-13 17:30:00,16.7,14.5,30.23,WSW,258,4.0,8.3,91,0.00,,OVC095,0.00,VWS V14.01,2013-01-13 23:30:00,
2013-01-13 17:35:00,16.5,14.4,30.23,SW,232,4.0,8.7,91,0.00,,OVC095,0.00,VWS V14.01,2013-01-13 23:35:00,
2013-01-13 17:40:00,16.3,14.2,30.23,WNW,299,4.9,7.2,91,0.00,,OVC095,0.00,VWS V14.01,2013-01-13 23:40:00,
2013-01-13 17:45:00,16.2,14.0,30.23,West,271,7.2,7.2,91,0.00,,OVC095,0.00,VWS V14.01,2013-01-13 23:45:00,
2013-01-13 17:50:00,16.0,13.8,30.23,WSW,256,3.1,3.6,91,0.00,,OVC095,0.00,VWS V14.01,2013-01-13 23:50:00,
2013-01-13 17:55:00,16.0,13.8,30.23,NW,317,2.7,7.6,91,0.00,,OVC095,0.00,VWS V14.01,2013-01-13 23:55:00,
2013-01-13 18:00:00,15.8,13.6,30.23,WNW,298,0.0,3.1,91,0.00,,OVC095,0.00,VWS V14.01,2013-01-14 00:00:00,
2013-01-13 18:05:00,15.6,13.5,30.23,WNW,283,2.7,3.6,91,0.00,,SCT095,0.00,VWS V14.01,2013-01-14 00:05:00,
2013-01-13 18:10:00,15.4,13.3,30.23,North,357,0.0,0.0,91,0.00,,SCT095,0.00,VWS V14.01,2013-01-14 00:10:00,
2013-01-13 18:15:00,15.4,13.3,30.23,West,269,0.0,3.6,91,0.00,,SCT095,0.00,VWS V14.01,2013-01-14 00:15:00,
2013-01-13 18:20:00,15.3,13.1,30.23,NNW,329,0.0,0.0,91,0.00,,CLR,0.00,VWS V14.01,2013-01-14 00:20:00,
2013-01-13 18:25:00,15.3,13.1,30.23,WSW,247,2.7,4.0,91,0.00,,CLR,0.00,VWS V14.01,2013-01-14 00:25:00,
2013-01-13 18:30:00,15.1,12.9,30.23,West,269,2.7,2.7,91,0.00,,CLR,0.00,VWS V14.01,2013-01-14 00:30:00,
2013-01-13 18:35:00,15.1,12.9,30.23,WNW,284,4.0,4.0,91,0.00,,CLR,0.00,VWS V14.01,2013-01-14 00:35:00,
2013-01-13 18:41:00,14.9,12.8,30.23,WNW,283,2.7,3.1,91,0.00,,CLR,0.00,VWS V14.01,2013-01-14 00:41:00,
2013-01-13 18:46:00,14.9,12.8,30.23,NW,304,3.6,5.4,91,0.00,,CLR,0.00,VWS V14.01,2013-01-14 00:46:00,
2013-01-13 18:51:00,14.9,12.8,30.23,WSW,247,0.0,0.0,91,0.00,,CLR,0.00,VWS V14.01,2013-01-14 00:51:00,
2013-01-13 18:56:00,14.9,12.8,30.23,WSW,254,0.0,4.9,91,0.00,,CLR,0.00,VWS V14.01,2013-01-14 00:56:00,
2013-01-13 19:01:00,14.9,12.8,30.23,West,276,3.1,5.8,91,0.00,,CLR,0.00,VWS V14.01,2013-01-14 01:01:00,
2013-01-13 19:06:00,14.9,12.8,30.23,WNW,290,2.7,3.6,91,0.00,,CLR,0.00,VWS V14.01,2013-01-14 01:06:00,
2013-01-13 19:11:00,14.9,12.8,30.23,WSW,253,3.1,3.6,91,0.00,,CLR,0.00,VWS V14.01,2013-01-14 01:11:00,
2013-01-13 19:16:00,14.9,12.8,30.23,West,270,0.0,0.0,91,0.00,,CLR,0.00,VWS V14.01,2013-01-14 01:16:00,
2013-01-13 19:21:00,14.7,12.6,30.23,West,261,2.7,2.7,91,0.00,,CLR,0.00,VWS V14.01,2013-01-14 01:21:00,
2013-01-13 19:27:00,14.5,12.4,30.23,West,261,4.9,5.4,91,0.00,,CLR,0.00,VWS V14.01,2013-01-14 01:27:00,
2013-01-13 19:32:00,14.5,12.4,30.26,SW,233,0.0,0.0,91,0.00,,CLR,0.00,VWS V14.01,2013-01-14 01:32:00,
2013-01-13 19:37:00,14.5,12.4,30.26,WSW,239,0.0,3.6,91,0.00,,CLR,0.00,VWS V14.01,2013-01-14 01:37:00,
2013-01-13 19:42:00,14.5,12.4,30.26,WSW,250,0.0,3.1,91,0.00,,CLR,0.00,VWS V14.01,2013-01-14 01:42:00,
2013-01-13 19:47:00,14.5,12.4,30.26,West,274,0.0,5.4,91,0.00,,CLR,0.00,VWS V14.01,2013-01-14 01:47:00,
2013-01-13 19:52:00,14.5,12.4,30.26,WNW,282,0.0,0.0,91,0.00,,CLR,0.00,VWS V14.01,2013-01-14 01:52:00,
2013-01-13 19:57:00,14.5,12.4,30.26,NW,312,4.0,5.4,91,0.00,,CLR,0.00,VWS V14.01,2013-01-14 01:57:00,
2013-01-13 20:02:00,14.5,12.4,30.26,WSW,244,0.0,4.9,91,0.00,,CLR,0.00,VWS V14.01,2013-01-14 02:02:00,
2013-01-13 20:07:00,14.5,12.4,30.26,WSW,253,2.7,6.3,91,0.00,,CLR,0.00,VWS V14.01,2013-01-14 02:07:00,
2013-01-13 20:12:00,14.5,12.4,30.26,West,279,0.0,6.3,91,0.00,,CLR,0.00,VWS V14.01,2013-01-14 02:12:00,
2013-01-13 20:18:00,14.5,12.4,30.26,West,275,0.0,0.0,91,0.00,,CLR,0.00,VWS V14.01,2013-01-14 02:18:00,
2013-01-13 20:23:00,14.5,12.4,30.26,NW,312,0.0,4.0,91,0.00,,CLR,0.00,VWS V14.01,2013-01-14 02:23:00,
2013-01-13 20:28:00,14.5,12.4,30.26,WSW,251,4.0,4.0,91,0.00,,CLR,0.00,VWS V14.01,2013-01-14 02:28:00,
2013-01-13 20:33:00,14.5,12.4,30.26,WNW,295,2.7,4.0,91,0.00,,CLR,0.00,VWS V14.01,2013-01-14 02:33:00,
2013-01-13 20:38:00,14.5,12.4,30.26,SW,220,3.1,7.2,91,0.00,,CLR,0.00,VWS V14.01,2013-01-14 02:38:00,
2013-01-13 20:43:00,14.5,12.4,30.26,West,281,4.9,4.9,91,0.00,,CLR,0.00,VWS V14.01,2013-01-14 02:43:00,
2013-01-13 20:48:00,14.5,12.4,30.26,NW,304,0.0,4.9,91,0.00,,CLR,0.00,VWS V14.01,2013-01-14 02:48:00,
2013-01-13 20:53:00,14.5,12.4,30.26,NNW,343,4.0,8.1,91,0.00,,CLR,0.00,VWS V14.01,2013-01-14 02:53:00,
2013-01-13 20:58:00,14.5,12.4,30.26,North,0,6.3,7.2,91,0.00,,CLR,0.00,VWS V14.01,2013-01-14 02:58:00,
2013-01-13 21:03:00,14.5,12.4,30.26,NW,319,2.2,5.8,91,0.00,,CLR,0.00,VWS V14.01,2013-01-14 03:03:00,
2013-01-13 21:08:00,14.5,12.4,30.26,West,264,0.0,4.9,91,0.00,,CLR,0.00,VWS V14.01,2013-01-14 03:08:00,
2013-01-13 21:14:00,14.5,12.4,30.26,NW,310,0.0,5.4,91,0.00,,CLR,0.00,VWS V14.01,2013-01-14 03:14:00,
2013-01-13 21:19:00,14.5,12.4,30.26,WNW,291,6.3,6.7,91,0.00,,CLR,0.00,VWS V14.01,2013-01-14 03:19:00,
2013-01-13 21:24:00,14.5,12.4,30.26,NW,312,3.1,5.4,91,0.00,,CLR,0.00,VWS V14.01,2013-01-14 03:24:00,
2013-01-13 21:29:00,14.4,12.2,30.26,NW,304,3.1,6.3,91,0.00,,CLR,0.00,VWS V14.01,2013-01-14 03:29:00,
2013-01-13 21:34:00,14.4,12.2,30.26,WNW,282,5.4,7.6,91,0.00,,CLR,0.00,VWS V14.01,2013-01-14 03:34:00,
2013-01-13 21:39:00,14.4,12.2,30.26,WNW,299,4.0,6.3,91,0.00,,CLR,0.00,VWS V14.01,2013-01-14 03:39:00,
2013-01-13 21:44:00,14.2,12.0,30.26,WNW,300,6.3,8.7,91,0.00,,CLR,0.00,VWS V14.01,2013-01-14 03:44:00,
2013-01-13 21:49:00,14.2,12.0,30.26,NNW,327,4.0,7.2,91,0.00,,CLR,0.00,VWS V14.01,2013-01-14 03:49:00,
2013-01-13 21:55:00,14.2,12.0,30.26,NNW,329,3.6,6.7,91,0.00,,CLR,0.00,VWS V14.01,2013-01-14 03:55:00,
2013-01-13 22:00:00,14.0,12.7,30.26,WNW,290,3.6,8.3,94,0.00,,CLR,0.00,VWS V14.01,2013-01-14 04:00:00,
2013-01-13 22:05:00,13.8,12.5,30.26,NNW,339,3.1,3.1,94,0.00,,CLR,0.00,VWS V14.01,2013-01-14 04:05:00,
2013-01-13 22:10:00,13.8,12.5,30.26,WNW,283,2.7,6.3,94,0.00,,CLR,0.00,VWS V14.01,2013-01-14 04:10:00,
2013-01-13 22:15:00,13.8,12.5,30.26,NNW,344,2.7,4.9,94,0.00,,CLR,0.00,VWS V14.01,2013-01-14 04:15:00,
2013-01-13 22:20:00,13.8,12.5,30.26,NNW,327,0.0,0.0,94,0.00,,CLR,0.00,VWS V14.01,2013-01-14 04:20:00,
2013-01-13 22:25:00,13.8,12.5,30.26,West,279,2.7,4.0,94,0.00,,CLR,0.00,VWS V14.01,2013-01-14 04:25:00,
2013-01-13 22:30:00,13.8,12.5,30.29,NNW,329,4.9,4.9,94,0.00,,CLR,0.00,VWS V14.01,2013-01-14 04:30:00,
2013-01-13 22:35:00,13.8,12.5,30.29,West,280,2.7,2.7,94,0.00,,CLR,0.00,VWS V14.01,2013-01-14 04:35:00,
2013-01-13 22:40:00,13.8,12.5,30.29,NNW,334,3.6,3.6,94,0.00,,CLR,0.00,VWS V14.01,2013-01-14 04:40:00,
2013-01-13 22:45:00,13.6,12.4,30.29,NW,325,2.7,4.9,94,0.00,,CLR,0.00,VWS V14.01,2013-01-14 04:45:00,
2013-01-13 22:51:00,13.6,12.4,30.29,West,271,3.1,4.0,94,0.00,,CLR,0.00,VWS V14.01,2013-01-14 04:51:00,
2013-01-13 22:56:00,13.6,12.4,30.29,NW,321,2.7,3.1,94,0.00,,CLR,0.00,VWS V14.01,2013-01-14 04:56:00,
2013-01-13 23:00:00,13.6,12.4,30.29,West,266,0.0,5.4,94,0.00,,CLR,0.00,VWS V14.01,2013-01-14 05:00:00,
2013-01-13 23:03:00,13.5,12.2,30.29,SW,233,0.0,0.0,94,0.00,,CLR,0.00,VWS V14.01,2013-01-14 05:03:00,
2013-01-13 23:05:00,13.5,12.2,30.29,WSW,245,3.1,4.0,94,0.00,,CLR,0.00,VWS V14.01,2013-01-14 05:05:00,
2013-01-13 23:10:00,13.5,12.2,30.29,WSW,257,0.0,6.3,94,0.00,,CLR,0.00,VWS V14.01,2013-01-14 05:10:00,
2013-01-13 23:15:00,13.5,12.2,30.29,WSW,249,0.0,0.0,94,0.00,,CLR,0.00,VWS V14.01,2013-01-14 05:15:00,
2013-01-13 23:20:00,13.3,12.0,30.29,West,279,0.0,0.0,94,0.00,,CLR,0.00,VWS V14.01,2013-01-14 05:20:00,
2013-01-13 23:25:00,13.3,12.0,30.29,NNW,343,0.0,0.0,94,0.00,,CLR,0.00,VWS V14.01,2013-01-14 05:25:00,
2013-01-13 23:30:00,13.3,12.0,30.29,NW,312,0.0,0.0,94,0.00,,CLR,0.00,VWS V14.01,2013-01-14 05:30:00,
2013-01-13 23:35:00,13.3,12.0,30.29,NW,310,0.0,0.0,94,0.00,,CLR,0.00,VWS V14.01,2013-01-14 05:35:00,
2013-01-13 23:40:00,13.3,12.0,30.29,NW,316,0.0,0.0,94,0.00,,CLR,0.00,VWS V14.01,2013-01-14 05:40:00,
2013-01-13 23:45:00,13.1,11.8,30.29,West,281,0.0,0.0,94,0.00,,CLR,0.00,VWS V14.01,2013-01-14 05:45:00,
2013-01-13 23:50:00,13.1,11.8,30.29,West,275,3.1,3.1,94,0.00,,CLR,0.00,VWS V14.01,2013-01-14 05:50:00,
2013-01-13 23:55:00,12.9,11.6,30.29,WSW,244,0.0,0.0,94,0.00,,CLR,0.00,VWS V14.01,2013-01-14 05:55:00,